Regional Weather Roundup
Issued by NWS

Home | Current Version | Previous Version | Graphics & Text | Print | Product List | Glossary On
Versions: 1 2 3 4 5 6 7 8 9 10 11 12 13 14 15 16 17 18 19 20 21 22 23 24 25 26 27 28 29 30 31 32 33 34 35 36 37 38 39 40 41 42 43 44 45 46 47 48 49 50
579
ASUS45 KTFX 260610
RWRMT
MONTANA REGIONAL WEATHER ROUNDUP
NATIONAL WEATHER SERVICE GREAT FALLS MT
1200 AM MDT MON SEP 26 2016

NOTE: "FAIR" INDICATES FEW OR NO CLOUDS BELOW 12000 FEET WITH NO
SIGNIFICANT WEATHER AND/OR OBSTRUCTIONS TO VISIBILITY.

MTZ001>007-043-260700-
WEST OF THE DIVIDE

CITY           SKY/WX    TMP DP  RH WIND       PRES   REMARKS
KALISPELL      MOCLDY    48  44  86 W3        30.41R
MISSOULA       CLEAR     49  43  80 SE6       30.42S
BUTTE          CLEAR     44  38  79 N3        30.46F
MULLAN PASS    CLEAR     50  37  61 S3        30.49F
ANACONDA         N/A     52  37  58 S7        30.44F
DEER LODGE       N/A     46  37  71 CALM      30.46F
EUREKA           N/A     48  41  76 CALM      30.40S
HAMILTON         N/A     48  41  76 CALM      30.42S
LIBBY            N/A     46  43  87 SE3       30.39F
RONAN            N/A     45  41  86 CALM      30.42S
$$

MTZ008-052>055-260700-
SOUTHWEST MONTANA

CITY           SKY/WX    TMP DP  RH WIND       PRES   REMARKS
BOZEMAN        CLEAR     48  41  76 SE5       30.42S
DILLON         CLEAR     48  39  71 S7        30.44
W YELLOWSTONE    N/A     37  32  81 CALM      30.53S
ENNIS          CLEAR     48  37  66 CALM      30.50R
THREE FORKS      N/A     45  45 100 CALM      30.35F
TWIN BRIDGES     N/A     46  37  70 E5        30.37S
$$

MTZ009-010-012-014-046-048-049-054-260700-
EAST SLOPES AND CENTRAL MONTANA

CITY           SKY/WX    TMP DP  RH WIND       PRES   REMARKS
CUT BANK       CLEAR     50  40  68 W14       30.30S
GREAT FALLS    CLEAR     47  40  76 SW8       30.34R
MALMSTROM AFB  CLEAR     49  42  78 SW8       30.33S
HELENA         CLEAR     60  40  47 W9        30.37F
AUGUSTA          N/A     52  40  64 NW13      30.34
BOWMANS CRNR     N/A     51  40  65 SW7       30.34
CHOTEAU          N/A     54  41  62 SW7       30.34S
CONRAD           N/A     50  44  79 CALM      30.30S
FAIRFIELD        N/A     48  40  72 W2        30.32
POWER            N/A     45  38  77 W5        30.32
RAYNESFORD       N/A     55  41  59 SW1       30.34
$$

MTZ011-013-016-021-045-047-050-051-260700-
NORTH CENTRAL MONTANA

CITY           SKY/WX    TMP DP  RH WIND       PRES   REMARKS
HAVRE          CLEAR     46  41  82 SW3       30.27R
LEWISTOWN      CLOUDY    50  42  74 W7        30.33F
N BAR RANCH      N/A     48  39  71 W8        30.35S
CHINOOK          N/A     45  41  87 CALM      30.25S
DENTON           N/A     49  42  74 W13       30.29
GEYSER           N/A     52  40  64 NW13      30.34
GRASS RANGE      N/A     51  40  65 W12       30.29
JUDITH GAP     MOCLDY    53  41  63 MISG      30.35
ROY              N/A     51  41  70 MISG      30.28
STANFORD       MOCLDY    53  41  63 NW12      30.35
WINIFRED         N/A     52  41  64 MISG      30.31
$$

MTZ017>020-022>027-061-062-260700-
NORTHEAST MONTANA

CITY           SKY/WX    TMP DP  RH WIND       PRES   REMARKS
GLASGOW        CLEAR     48  38  68 W5        30.22S
JORDAN           N/A     42  39  89 W5        30.26R
SIDNEY         CLEAR     44  39  82 CALM      30.22S
WOLF POINT     CLEAR     42  39  89 CALM      30.22F
PLENTYWOOD       N/A     45  34  65 W3        30.20S
POPLAR           N/A     48  39  71 CALM      30.22F
$$

MTZ028>42-056>058-260700-
SOUTHCENTRAL AND SOUTHEAST MONTANA

CITY           SKY/WX    TMP DP  RH WIND       PRES   REMARKS
BAKER          CLEAR     41  37  86 CALM      30.27S
BILLINGS       PTCLDY    57  41  55 SW15      30.33S
LIVINGSTON     CLOUDY    54  39  57 W7        30.39S
MILES CITY     CLEAR     46  41  82 S6        30.27S
BIG TIMBER     CLEAR     55  41  58 SW10      30.38S
FORSYTH          N/A     48  41  76 CALM      30.27F
HARLOWTON      MOCLDY    55  41  58 NW18      30.35
LAUREL           N/A     54  40  59 SW1       30.29S
ROUNDUP          N/A     50  38  63 SW7       30.20R
$$

REGIONAL REPORTS...DAKOTAS

CITY           SKY/WX    TMP DP  RH WIND       PRES   REMARKS
WILLISTON      CLEAR     42  33  70 CALM      30.20S
MINOT          CLEAR     50  34  54 W14       30.12S
DICKINSON      CLEAR     38  33  82 W7        30.20F
CROSBY           N/A     45  34  65 NW10      30.19S
WATFORD CITY     N/A     39  36  87 SW7       30.20F
BISMARCK       CLEAR     46  35  65 W8        30.17F
GRAND FORKS    PTCLDY    52  39  61 NW15      29.93F
FARGO          PTCLDY    54  37  52 W16G25    29.97S
BUFFALO SD       N/A     47  37  68 W8        30.21S
RAPID CITY     CLEAR     43  34  70 W7        30.32S
$$

REGIONAL REPORTS...WYOMING/IDAHO/WASHINGTON

CITY           SKY/WX    TMP DP  RH WIND       PRES   REMARKS
GILLETTE       CLEAR     45  39  79 S5        30.35F
SHERIDAN       CLEAR     46  39  76 SW3       30.34F
BUFFALO WY     CLEAR     47  38  71 W7        30.38S
CODY           CLEAR     44  41  89 CALM      30.41S
YELLOWSTONE LA   N/A     33  32  96 CALM      30.58F
IDAHO FALLS    CLEAR     44  40  85 CALM      30.46F
SALMON         CLEAR     45  37  76 CALM      30.44R
BOISE          CLEAR     59  35  40 SE10      30.35F
SPOKANE        PTCLDY    60  37  42 CALM      30.34F
$$

REGIONAL REPORTS...ALBERTA

CITY           SKY/WX    TMP DP  RH WIND       PRES   REMARKS
EDMONTON       PTCLDY    46  37  71 SW6       30.17S
CALGARY        CLEAR     50  37  62 SE5       30.23S
LETHBRIDGE     CLEAR     55  43  62 W15G24    30.24F
MEDICINE HAT   CLEAR     43  37  81 SW5       30.22S
$$

REGIONAL REPORTS...SASKATCHEWAN

CITY           SKY/WX    TMP DP  RH WIND       PRES   REMARKS
SWIFT CURRENT  CLEAR     41  34  75 SW9       30.19F
REGINA         CLEAR     36  32  87 W8        30.16S WCI  29
SASKATOON      CLEAR     36  32  87 W6        30.17R WCI  31
$$




USA.gov is the U.S. government's official web portal to all federal, state and local government web resources and services.